Weather History for KCXY - November, 2012

Change the Weather History Date:

Monday, November 5, 2012

  Actual Average Record
Temperature  
Mean Temperature 40 °F -  
Max Temperature 45 °F 55 °F 79 °F (1975)
Min Temperature 35 °F 37 °F 25 °F (1991)
Degree Days  
Heating Degree Days 25    
Moisture  
Dew Point 24 °F    
Average Humidity 52    
Maximum Humidity 64    
Minimum Humidity 43    
Precipitation  
Precipitation 0.00 in - - ()
Sea Level Pressure  
Sea Level Pressure 30.12 in    
Wind  
Wind Speed 7 mph (NNW)    
Max Wind Speed 12 mph    
Max Gust Speed -    
Visibility 10 miles    
Events Snow    
Averages and records for this station are not official NWS values.
T = Trace of Precipitation, MM = Missing Value Source: NWS Daily Summary

Daily Weather History Graph

Daily Weather History Graph

Search for Another Location

Airport or City:

Trip Planner

Search our weather history database for the weather conditions in past years. The results will help you decide how hot, cold, wet, or windy it might be!

Date:

Astronomy

Nov. 05, 2012 Rise Set
Actual Time 6:42 AM EST 4:59 PM EST
Civil Twilight 6:13 AM EST 5:27 PM EST
Nautical Twilight 5:41 AM EST 6:00 PM EST
Astronomical Twilight 5:09 AM EST 6:32 PM EST
Moon 10:34 PM EST (11/5) 12:00 PM EST (11/5)
Length of Visible Light 11h 14m
Length of Day
10h 17m
Waning Gibbous, 63% of the Moon is Illuminated
Nov 5
Waning Gibbous
Nov 6
Last Quarter
Nov 13
New
Nov 20
First Quarter
Nov 28
Full

Hourly Weather History & Observations

Time (EST) Temp. Windchill Dew Point Humidity Pressure Visibility Wind Dir Wind Speed Gust Speed Precip Events Conditions
12:56 AM 41.0 °F 35.2 °F 27.0 °F 57% 30.05 in 10.0 mi NNW 9.2 mph - N/A   Overcast
1:56 AM 39.9 °F 34.5 °F 26.1 °F 58% 30.06 in 10.0 mi NNW 8.1 mph - N/A   Overcast
2:56 AM 39.0 °F 34.8 °F 24.1 °F 55% 30.06 in 10.0 mi NNW 5.8 mph - N/A   Overcast
3:56 AM 37.9 °F 33.5 °F 23.0 °F 55% 30.06 in 9.0 mi North 5.8 mph - 0.00 in Snow Light Snow
4:56 AM 37.9 °F 33.5 °F 24.1 °F 57% 30.08 in 9.0 mi NNW 5.8 mph - 0.00 in Snow Light Snow
6:56 AM 37.9 °F 32.7 °F 23.0 °F 55% 30.10 in 9.0 mi NW 6.9 mph - 0.00 in Snow Light Snow
7:56 AM 37.9 °F 32.1 °F 24.1 °F 57% 30.12 in 9.0 mi WNW 8.1 mph - 0.00 in Snow Light Snow
8:56 AM 39.0 °F 32.8 °F 24.1 °F 55% 30.12 in 10.0 mi NNW 9.2 mph - 0.00 in   Overcast
9:56 AM 39.9 °F 32.9 °F 23.0 °F 51% 30.13 in 10.0 mi NNW 11.5 mph - N/A   Overcast
10:56 AM 41.0 °F 36.4 °F 24.1 °F 51% 30.13 in 10.0 mi NNW 6.9 mph - N/A   Overcast
11:56 AM 44.1 °F 38.1 °F 24.1 °F 45% 30.12 in 10.0 mi North 11.5 mph - N/A   Scattered Clouds
12:56 PM 43.0 °F 37.7 °F 23.0 °F 45% 30.11 in 10.0 mi NW 9.2 mph - N/A   Clear
1:56 PM 44.1 °F 39.5 °F 23.0 °F 43% 30.10 in 10.0 mi NNW 8.1 mph - N/A   Scattered Clouds
2:56 PM 45.0 °F 39.7 °F 24.1 °F 44% 30.10 in 10.0 mi NNW 10.4 mph - N/A   Scattered Clouds
3:56 PM 44.1 °F 38.6 °F 23.0 °F 43% 30.10 in 10.0 mi NNW 10.4 mph - N/A   Scattered Clouds
4:56 PM 42.1 °F 37.7 °F 21.9 °F 45% 30.12 in 10.0 mi North 6.9 mph - N/A   Scattered Clouds
5:56 PM 41.0 °F 35.8 °F 23.0 °F 49% 30.14 in 10.0 mi North 8.1 mph - N/A   Overcast
6:56 PM 39.0 °F 36.8 °F 23.0 °F 53% 30.17 in 10.0 mi North 3.5 mph - N/A   Partly Cloudy
7:56 PM 39.0 °F 35.7 °F 23.0 °F 53% 30.18 in 10.0 mi North 4.6 mph - N/A   Mostly Cloudy
8:56 PM 35.1 °F - 24.1 °F 64% 30.19 in 10.0 mi Calm Calm - N/A   Overcast
9:56 PM 37.9 °F - 23.0 °F 55% 30.20 in 10.0 mi Calm Calm - N/A   Mostly Cloudy
10:56 PM 37.9 °F - 23.0 °F 55% 30.20 in 10.0 mi Calm Calm - N/A   Mostly Cloudy
11:56 PM 39.0 °F - 21.9 °F 50% 30.20 in 10.0 mi Calm Calm - N/A   Overcast